Weather History for Staples, MN

Change the Weather History Date:

Friday, March 21, 2014

  Actual Average Record
Temperature  
Mean Temperature 20 °F -  
Max Temperature 35 °F 38 °F 64 °F (2012)
Min Temperature 6 °F 18 °F -16 °F (2013)
Degree Days  
Heating Degree Days 44    
Moisture  
Dew Point 23 °F    
Average Humidity 86    
Maximum Humidity 100    
Minimum Humidity 73    
Precipitation  
Precipitation 0.10 in - - ()
Sea Level Pressure  
Sea Level Pressure 29.87 in    
Wind  
Wind Speed 11 mph (WNW)    
Max Wind Speed 28 mph    
Max Gust Speed 37 mph    
Visibility 8 miles    
Events Rain , Snow    
Averages and records for this station are not official NWS values.
T = Trace of Precipitation, MM = Missing Value Source: NWS Daily Summary

Daily Weather History Graph

Daily Weather History Graph

Search for Another Location

Airport:

Trip Planner

Search our weather history database for the weather conditions in past years. The results will help you decide how hot, cold, wet, or windy it might be!

Date:

Astronomy

Mar. 21, 2014 Rise Set
Actual Time 7:20 AM CDT 7:33 PM CDT
Civil Twilight 6:50 AM CDT 8:03 PM CDT
Nautical Twilight 6:14 AM CDT 8:38 PM CDT
Astronomical Twilight 5:38 AM CDT 9:15 PM CDT
Moon 12:07 AM CDT (3/21) 9:57 AM CDT (3/21)
Length of Visible Light 13h 13m
Length of Day
12h 13m
Waning Gibbous, 75% of the Moon is Illuminated
Mar 21
Waning Gibbous
Mar 23
Last Quarter
Mar 30
New
Apr 7
First Quarter
Apr 15
Full

Hourly Weather History & Observations

Time (CDT) Temp. Windchill Dew Point Humidity Pressure Visibility Wind Dir Wind Speed Gust Speed Precip Events Conditions
12:13 AM 35.6 °F 31.7 °F 28.4 °F 75% 29.80 in 10.0 mi ESE 4.6 mph - N/A   Overcast
12:34 AM 35.6 °F 30.7 °F 28.4 °F 75% 29.80 in 10.0 mi SE 5.8 mph - N/A   Overcast
12:53 AM 35.6 °F 29.9 °F 28.4 °F 75% 29.80 in 10.0 mi SE 6.9 mph - N/A   Overcast
1:13 AM 35.6 °F 30.7 °F 28.4 °F 75% 29.80 in 10.0 mi SE 5.8 mph - N/A   Overcast
1:34 AM 35.6 °F 29.9 °F 28.4 °F 75% 29.79 in 10.0 mi SE 6.9 mph - N/A   Overcast
1:53 AM 35.6 °F 29.2 °F 28.4 °F 75% 29.79 in 10.0 mi SE 8.1 mph - N/A   Overcast
2:13 AM 35.6 °F 30.7 °F 28.4 °F 75% 29.80 in 10.0 mi SSE 5.8 mph - N/A   Overcast
2:34 AM 33.8 °F 27.7 °F 28.4 °F 81% 29.80 in 10.0 mi SSE 6.9 mph - N/A   Overcast
2:53 AM 33.8 °F 27.7 °F 28.4 °F 81% 29.79 in 10.0 mi SSE 6.9 mph - N/A   Overcast
3:13 AM 33.8 °F 27.0 °F 30.2 °F 87% 29.78 in 7.0 mi SSE 8.1 mph - N/A Rain Light Rain
3:34 AM 32.0 °F 25.6 °F 30.2 °F 93% 29.78 in 5.0 mi SSE 6.9 mph - N/A Rain Light Rain
3:53 AM 32.0 °F 26.4 °F 30.2 °F 93% 29.77 in 2.0 mi SSE 5.8 mph - 0.02 in Snow Light Snow
4:14 AM 32.0 °F 27.5 °F 30.2 °F 93% 29.75 in 5.0 mi SE 4.6 mph - 0.01 in Snow Light Snow
4:33 AM 30.2 °F 24.3 °F 30.2 °F 100% 29.75 in 5.0 mi SE 5.8 mph - 0.01 in   Overcast
4:53 AM 32.0 °F 26.4 °F 30.2 °F 93% 29.74 in 5.0 mi SSE 5.8 mph - 0.01 in   Overcast
5:14 AM 32.0 °F 23.6 °F 30.2 °F 93% 29.73 in 7.0 mi SE 10.4 mph 16.1 mph N/A   Overcast
5:33 AM 32.0 °F 24.8 °F 30.2 °F 93% 29.71 in 7.0 mi SSE 8.1 mph - N/A Snow Light Snow
5:53 AM 32.0 °F 24.8 °F 30.2 °F 93% 29.69 in 10.0 mi SE 8.1 mph - N/A   Overcast
6:14 AM 32.0 °F 23.0 °F 30.2 °F 93% 29.68 in 1.5 mi SE 11.5 mph - 0.01 in Snow Light Snow
6:33 AM 30.2 °F 20.8 °F 30.2 °F 100% 29.68 in 3.0 mi SSE 11.5 mph 17.3 mph 0.02 in Snow Light Snow
6:53 AM 30.2 °F 20.2 °F 30.2 °F 100% 29.67 in 2.0 mi SSE 12.7 mph - 0.03 in Snow Light Snow
7:13 AM 30.2 °F 24.3 °F 30.2 °F 100% 29.70 in 2.5 mi SW 5.8 mph - N/A Snow Light Snow
7:33 AM 30.2 °F 22.6 °F 30.2 °F 100% 29.69 in 1.2 mi South 8.1 mph - 0.02 in Snow Light Snow
7:54 AM 30.2 °F 21.9 °F 30.2 °F 100% 29.68 in 0.8 mi South 9.2 mph - 0.03 in Snow Light Snow
8:13 AM 30.2 °F 21.3 °F 30.2 °F 100% 29.68 in 2.0 mi South 10.4 mph - N/A Snow Light Snow
8:33 AM 30.2 °F 21.9 °F 30.2 °F 100% 29.67 in 3.0 mi South 9.2 mph - N/A Snow Light Snow
8:54 AM 30.2 °F 22.6 °F 30.2 °F 100% 29.66 in 5.0 mi South 8.1 mph - N/A   Overcast
9:13 AM 32.0 °F 24.8 °F 30.2 °F 93% 29.67 in 3.0 mi SSW 8.1 mph - N/A Snow Light Snow
9:33 AM 32.0 °F 26.4 °F 30.2 °F 93% 29.67 in 5.0 mi SSW 5.8 mph - N/A   Overcast
9:54 AM 32.0 °F 26.4 °F 32.0 °F 100% 29.67 in 5.0 mi SSW 5.8 mph - N/A   Overcast
10:13 AM 33.8 °F 29.6 °F 32.0 °F 93% 29.67 in 3.0 mi SW 4.6 mph - N/A   Overcast
10:33 AM 33.8 °F 27.0 °F 33.8 °F 100% 29.68 in 1.5 mi West 8.1 mph - N/A   Overcast
10:53 AM 33.8 °F 25.8 °F 33.8 °F 100% 29.68 in 1.5 mi WNW 10.4 mph 16.1 mph N/A   Overcast
11:13 AM 33.8 °F 24.8 °F 33.8 °F 100% 29.69 in 4.0 mi WNW 12.7 mph - N/A   Overcast
11:33 AM 32.0 °F 20.5 °F 30.2 °F 93% 29.70 in 1.8 mi NW 18.4 mph 24.2 mph N/A Snow Light Snow
11:53 AM 33.8 °F 23.2 °F 30.2 °F 87% 29.72 in 5.0 mi NW 17.3 mph 26.5 mph 0.01 in Snow Light Snow
12:13 PM 33.8 °F 21.3 °F 30.2 °F 87% 29.73 in 10.0 mi NNW 24.2 mph 33.4 mph N/A   Overcast
12:33 PM 33.8 °F 20.5 °F 28.4 °F 81% 29.74 in 10.0 mi NNW 27.6 mph 34.5 mph N/A   Overcast
12:53 PM 32.0 °F 18.6 °F 28.4 °F 87% 29.76 in 10.0 mi NNW 25.3 mph 36.8 mph N/A   Overcast
1:13 PM 30.2 °F 15.9 °F 28.4 °F 93% 29.78 in 10.0 mi NNW 26.5 mph 34.5 mph N/A   Overcast
1:33 PM 30.2 °F 16.5 °F 26.6 °F 86% 29.79 in 10.0 mi NNW 24.2 mph 31.1 mph N/A   Overcast
1:53 PM 30.2 °F 16.5 °F 26.6 °F 86% 29.81 in 10.0 mi NNW 24.2 mph 33.4 mph N/A   Overcast
2:13 PM 30.2 °F 17.1 °F 26.6 °F 86% 29.83 in 10.0 mi NW 21.9 mph 31.1 mph N/A   Overcast
2:33 PM 30.2 °F 16.5 °F 26.6 °F 86% 29.84 in 10.0 mi NNW 24.2 mph 32.2 mph N/A   Overcast
2:53 PM 28.4 °F 15.4 °F 24.8 °F 86% 29.86 in 10.0 mi NW 19.6 mph 35.7 mph N/A   Overcast
3:13 PM 28.4 °F 13.8 °F 24.8 °F 86% 29.88 in 10.0 mi NW 25.3 mph 32.2 mph N/A   Overcast
3:34 PM 28.4 °F 13.8 °F 23.0 °F 80% 29.89 in 10.0 mi NW 25.3 mph 32.2 mph N/A   Overcast
3:53 PM 28.4 °F 13.5 °F 24.8 °F 86% 29.91 in 10.0 mi NW 26.5 mph 31.1 mph N/A   Overcast
4:13 PM 28.4 °F 15.1 °F 23.0 °F 80% 29.93 in 10.0 mi WNW 20.7 mph 27.6 mph N/A   Overcast
4:34 PM 26.6 °F 13.8 °F 21.2 °F 80% 29.95 in 10.0 mi NW 17.3 mph 28.8 mph N/A   Overcast
4:53 PM 26.6 °F 12.0 °F 21.2 °F 80% 29.96 in 10.0 mi NW 23.0 mph 28.8 mph N/A   Mostly Cloudy
5:13 PM 26.6 °F 12.7 °F 21.2 °F 80% 29.98 in 10.0 mi NW 20.7 mph 29.9 mph N/A   Mostly Cloudy
5:34 PM 24.8 °F 10.7 °F 19.4 °F 80% 30.00 in 10.0 mi NW 19.6 mph 26.5 mph N/A   Mostly Cloudy
5:53 PM 24.8 °F 10.7 °F 19.4 °F 80% 30.01 in 10.0 mi NW 19.6 mph 24.2 mph N/A   Overcast
6:13 PM 24.8 °F 10.7 °F 17.6 °F 74% 30.02 in 10.0 mi NW 19.6 mph 24.2 mph N/A   Mostly Cloudy
6:34 PM 21.2 °F 6.4 °F 15.8 °F 80% 30.04 in 10.0 mi NW 18.4 mph 26.5 mph N/A   Scattered Clouds
6:53 PM 19.4 °F 4.1 °F 14.0 °F 80% 30.05 in 10.0 mi NW 18.4 mph 26.5 mph N/A   Clear
7:13 PM 19.4 °F 2.5 °F 12.2 °F 74% 30.07 in 10.0 mi NW 23.0 mph 27.6 mph N/A   Clear
7:34 PM 17.6 °F 1.7 °F 10.4 °F 73% 30.09 in 10.0 mi NW 18.4 mph 21.9 mph N/A   Clear
7:53 PM 15.8 °F 0.9 °F 10.4 °F 79% 30.10 in 10.0 mi NW 15.0 mph 20.7 mph N/A   Clear
8:13 PM 14.0 °F -1.4 °F 8.6 °F 79% 30.13 in 10.0 mi NW 15.0 mph 24.2 mph N/A   Clear
8:34 PM 12.2 °F -4.8 °F 8.6 °F 85% 30.14 in 10.0 mi NNW 17.3 mph 23.0 mph N/A   Clear
8:53 PM 12.2 °F -5.3 °F 6.8 °F 79% 30.15 in 10.0 mi NNW 18.4 mph 27.6 mph N/A   Clear
9:13 PM 10.4 °F -7.7 °F 6.8 °F 85% 30.16 in 10.0 mi NW 18.4 mph 21.9 mph N/A   Clear
9:34 PM 10.4 °F -7.2 °F 6.8 °F 85% 30.18 in 10.0 mi NW 17.3 mph 23.0 mph N/A   Clear
9:53 PM 10.4 °F -7.2 °F 5.0 °F 79% 30.18 in 10.0 mi NW 17.3 mph 20.7 mph N/A   Clear
10:13 PM 8.6 °F -8.3 °F 3.2 °F 79% 30.20 in 10.0 mi NNW 15.0 mph 24.2 mph N/A   Clear
10:34 PM 8.6 °F -8.9 °F 1.4 °F 73% 30.21 in 10.0 mi NNW 16.1 mph 29.9 mph N/A   Clear
10:53 PM 8.6 °F -6.3 °F 1.4 °F 73% 30.22 in 10.0 mi NNW 11.5 mph - N/A   Clear
11:13 PM 6.8 °F -10.0 °F 1.4 °F 79% 30.22 in 10.0 mi NW 13.8 mph - N/A   Clear
11:34 PM 6.8 °F -8.6 °F 1.4 °F 79% 30.23 in 10.0 mi NNW 11.5 mph - N/A   Clear
11:53 PM 6.8 °F -10.7 °F 1.4 °F 79% 30.24 in 10.0 mi NW 15.0 mph 21.9 mph N/A   Clear